When you browse on this site, cookies collect data to enhance your experience and personalize the content and advertising you see.
Visit our Privacy Policy to learn more. By continuing to use the site, you agree to this use of cookies and data.
  • In Hungary
  • List of Countries
  • For 7 days
  • Water Temperature
  • Weather Map
  • News
  • Weather Widgets
  • user-avatar
    Login

    Hourly Weather Smirnovka

    Today, 6 June, Saturday

    Time Temperature Precipitation Wind Pressure Humidity
    00:00 +18°C° 0 mm 7 mps 751 mmHg 44%
    01:00 +18°C° 0 mm 7 mps 751 mmHg 41%
    02:00 +18°C° 0 mm 7 mps 751 mmHg 41%
    03:00 +18°C° 0 mm 7 mps 751 mmHg 41%
    04:00 +17°C° 0 mm 8 mps 751 mmHg 36%
    05:00 +17°C° 0 mm 8 mps 751 mmHg 38%
    06:00 +17°C° 0 mm 8 mps 751 mmHg 40%
    07:00 +17°C° 0 mm 8 mps 751 mmHg 42%
    08:00 +17°C° 0.3 mm 7 mps 751 mmHg 47%
    09:00 +17°C° 0.3 mm 6 mps 751 mmHg 52%
    10:00 +17°C° 0.3 mm 5 mps 751 mmHg 56%
    11:00 +17°C° 0.6 mm 6 mps 751 mmHg 60%
    12:00 +18°C° 0.6 mm 7 mps 751 mmHg 63%
    13:00 +18°C° 0.6 mm 7 mps 751 mmHg 66%
    14:00 +20°C° 0.3 mm 7 mps 751 mmHg 61%
    15:00 +22°C° 0.3 mm 8 mps 751 mmHg 57%
    16:00 +23°C° 0.3 mm 8 mps 752 mmHg 53%
    17:00 +22°C° 0.6 mm 7 mps 752 mmHg 55%
    18:00 +21°C° 0.6 mm 7 mps 752 mmHg 58%
    19:00 +20°C° 0.6 mm 6 mps 752 mmHg 61%
    20:00 +19°C° 0.2 mm 6 mps 752 mmHg 63%
    21:00 +16°C° 0.2 mm 5 mps 752 mmHg 65%
    22:00 +15°C° 0.2 mm 4 mps 752 mmHg 67%
    23:00 +15°C° 0 mm 4 mps 752 mmHg 67%

    Tomorrow, 7 June, Sunday

    Time Temperature Precipitation Wind Pressure Humidity
    00:00 +14°C° 0 mm 4 mps 752 mmHg 68%
    01:00 +14°C° 0 mm 4 mps 752 mmHg 68%
    02:00 +14°C° 0 mm 3 mps 753 mmHg 68%
    03:00 +14°C° 0 mm 3 mps 753 mmHg 67%
    04:00 +13°C° 0 mm 3 mps 753 mmHg 67%
    05:00 +16°C° 0 mm 3 mps 753 mmHg 63%
    06:00 +17°C° 0 mm 4 mps 753 mmHg 59%
    07:00 +18°C° 0 mm 4 mps 753 mmHg 56%
    08:00 +20°C° 0 mm 5 mps 753 mmHg 50%
    09:00 +22°C° 0 mm 5 mps 754 mmHg 45%
    10:00 +23°C° 0 mm 5 mps 754 mmHg 40%
    11:00 +25°C° 0 mm 5 mps 754 mmHg 38%
    12:00 +26°C° 0 mm 5 mps 753 mmHg 36%
    13:00 +27°C° 0 mm 5 mps 753 mmHg 35%
    14:00 +27°C° 0 mm 4 mps 753 mmHg 37%
    15:00 +27°C° 0 mm 3 mps 753 mmHg 39%
    16:00 +27°C° 0 mm 3 mps 753 mmHg 40%
    17:00 +25°C° 0 mm 3 mps 753 mmHg 48%
    18:00 +22°C° 0 mm 3 mps 752 mmHg 55%
    19:00 +21°C° 0 mm 3 mps 752 mmHg 62%
    20:00 +20°C° 0 mm 3 mps 752 mmHg 67%
    21:00 +19°C° 0 mm 3 mps 752 mmHg 72%
    22:00 +18°C° 0 mm 3 mps 752 mmHg 76%
    23:00 +18°C° 0.1 mm 3 mps 752 mmHg 74%

    Day after tomorrow, 8 June, Monday

    Time Temperature Precipitation Wind Pressure Humidity
    00:00 +18°C° 0.1 mm 3 mps 752 mmHg 72%
    01:00 +18°C° 0.1 mm 3 mps 752 mmHg 69%
    02:00 +18°C° 0 mm 3 mps 752 mmHg 69%
    03:00 +18°C° 0 mm 4 mps 752 mmHg 68%
    04:00 +18°C° 0 mm 4 mps 752 mmHg 68%
    05:00 +18°C° 0.2 mm 4 mps 752 mmHg 67%
    06:00 +18°C° 0.2 mm 4 mps 752 mmHg 67%
    07:00 +18°C° 0.2 mm 3 mps 752 mmHg 66%
    08:00 +19°C° 0 mm 3 mps 752 mmHg 61%
    09:00 +20°C° 0 mm 4 mps 752 mmHg 56%
    10:00 +21°C° 0 mm 4 mps 752 mmHg 51%
    11:00 +23°C° 0 mm 4 mps 752 mmHg 46%
    12:00 +25°C° 0 mm 4 mps 752 mmHg 41%
    13:00 +26°C° 0 mm 4 mps 752 mmHg 36%
    14:00 +27°C° 0 mm 4 mps 752 mmHg 35%
    15:00 +27°C° 0 mm 4 mps 752 mmHg 34%
    16:00 +28°C° 0 mm 4 mps 752 mmHg 33%
    17:00 +27°C° 0 mm 5 mps 752 mmHg 38%
    18:00 +26°C° 0 mm 5 mps 752 mmHg 44%
    19:00 +25°C° 0 mm 5 mps 752 mmHg 49%
    20:00 +23°C° 0 mm 5 mps 752 mmHg 49%
    21:00 +22°C° 0 mm 6 mps 752 mmHg 48%
    22:00 +21°C° 0 mm 6 mps 752 mmHg 48%
    23:00 +20°C° 0 mm 6 mps 753 mmHg 48%

    9 June, Tuesday

    Time Temperature Precipitation Wind Pressure Humidity
    00:00 +20°C° 0 mm 5 mps 753 mmHg 48%
    01:00 +19°C° 0 mm 5 mps 753 mmHg 48%
    02:00 +19°C° 0 mm 5 mps 753 mmHg 50%
    03:00 +17°C° 0 mm 5 mps 753 mmHg 52%
    04:00 +16°C° 0 mm 5 mps 753 mmHg 54%
    05:00 +17°C° 0 mm 6 mps 754 mmHg 54%
    06:00 +19°C° 0 mm 6 mps 754 mmHg 54%
    07:00 +20°C° 0 mm 7 mps 754 mmHg 54%
    08:00 +22°C° 0 mm 7 mps 754 mmHg 51%
    09:00 +23°C° 0 mm 6 mps 755 mmHg 47%
    10:00 +26°C° 0 mm 6 mps 755 mmHg 44%
    11:00 +26°C° 0 mm 6 mps 755 mmHg 41%
    12:00 +27°C° 0 mm 6 mps 755 mmHg 39%
    13:00 +28°C° 0 mm 6 mps 755 mmHg 36%
    14:00 +27°C° 0 mm 5 mps 755 mmHg 41%
    15:00 +26°C° 0 mm 3 mps 755 mmHg 46%
    16:00 +24°C° 0 mm 2 mps 755 mmHg 51%
    17:00 +24°C° 0 mm 2 mps 755 mmHg 51%
    18:00 +25°C° 0 mm 2 mps 755 mmHg 51%
    19:00 +25°C° 0 mm 3 mps 754 mmHg 51%
    20:00 +22°C° 0 mm 3 mps 754 mmHg 52%
    21:00 +21°C° 0 mm 3 mps 755 mmHg 52%
    22:00 +20°C° 0 mm 3 mps 755 mmHg 52%
    23:00 +19°C° 0 mm 4 mps 755 mmHg 52%

    10 June, Wednesday

    Time Temperature Precipitation Wind Pressure Humidity
    00:00 +19°C° 0 mm 4 mps 755 mmHg 52%
    01:00 +19°C° 0 mm 4 mps 755 mmHg 53%
    02:00 +19°C° 0 mm 4 mps 755 mmHg 52%
    03:00 +18°C° 0 mm 4 mps 755 mmHg 51%
    04:00 +18°C° 0 mm 4 mps 755 mmHg 50%
    05:00 +19°C° 0 mm 4 mps 755 mmHg 50%
    06:00 +21°C° 0 mm 5 mps 756 mmHg 50%
    07:00 +22°C° 0 mm 5 mps 756 mmHg 50%
    08:00 +25°C° 0 mm 5 mps 756 mmHg 45%
    09:00 +27°C° 0 mm 5 mps 756 mmHg 41%
    10:00 +29°C° 0 mm 6 mps 756 mmHg 37%
    11:00 +30°C° 0 mm 5 mps 756 mmHg 35%
    12:00 +32°C° 0 mm 5 mps 756 mmHg 34%
    13:00 +32°C° 0 mm 5 mps 756 mmHg 32%
    14:00 +32°C° 0 mm 5 mps 756 mmHg 32%
    15:00 +33°C° 0 mm 4 mps 756 mmHg 31%
    16:00 +33°C° 0 mm 4 mps 755 mmHg 31%
    17:00 +31°C° 0 mm 3 mps 755 mmHg 35%
    18:00 +30°C° 0 mm 3 mps 755 mmHg 40%
    19:00 +29°C° 0 mm 3 mps 755 mmHg 44%
    20:00 +27°C° 0 mm 3 mps 755 mmHg 45%
    21:00 +25°C° 0 mm 4 mps 755 mmHg 46%
    22:00 +23°C° 0 mm 4 mps 756 mmHg 47%
    23:00 +22°C° 0 mm 4 mps 756 mmHg 47%

    11 June, Thursday

    Time Temperature Precipitation Wind Pressure Humidity
    00:00 +22°C° 0 mm 4 mps 756 mmHg 48%
    01:00 +21°C° 0 mm 3 mps 756 mmHg 48%
    02:00 +21°C° 0 mm 3 mps 755 mmHg 51%
    03:00 +20°C° 0 mm 2 mps 755 mmHg 54%
    04:00 +20°C° 0 mm 1 mps 755 mmHg 56%
    05:00 +21°C° 0 mm 2 mps 755 mmHg 55%
    06:00 +22°C° 0 mm 3 mps 756 mmHg 53%
    07:00 +25°C° 0 mm 3 mps 756 mmHg 52%
    08:00 +27°C° 0 mm 3 mps 756 mmHg 47%
    09:00 +29°C° 0 mm 3 mps 755 mmHg 42%
    10:00 +30°C° 0 mm 4 mps 755 mmHg 37%
    11:00 +31°C° 0 mm 3 mps 755 mmHg 34%
    12:00 +33°C° 0 mm 3 mps 755 mmHg 31%
    13:00 +34°C° 0 mm 2 mps 755 mmHg 29%
    14:00 +34°C° 0 mm 2 mps 755 mmHg 28%
    15:00 +34°C° 0 mm 2 mps 754 mmHg 28%
    16:00 +34°C° 0 mm 2 mps 754 mmHg 27%
    17:00 +33°C° 0 mm 3 mps 754 mmHg 33%
    18:00 +30°C° 0 mm 3 mps 753 mmHg 39%
    19:00 +29°C° 0 mm 3 mps 753 mmHg 45%
    20:00 +28°C° 0 mm 3 mps 753 mmHg 47%
    21:00 +26°C° 0 mm 3 mps 753 mmHg 49%
    22:00 +25°C° 0 mm 3 mps 753 mmHg 50%
    23:00 +24°C° 0 mm 3 mps 753 mmHg 52%
    Show more